Location: Puketoi
(40.5833°S, 176.0167°E)
Time: 18:19:42
(UTC+00:00)

Daily predictions for brighter satellites

Satellite Brightness Start Highest point End
(mag) Time Altitude Azimuth Time Altitude Azimuth Time Altitude Azimuth
USA 229 DEB 3.9 12:04:03 10° SSW 12:09:34 60° S 12:09:34 60° S
USA 229 3.9 12:04:06 10° SSW 12:09:41 61° S 12:09:41 61° S
USA 215 3.6 12:12:56 10° SE 12:19:24 59° SW 12:20:09 55° WSW
Resurs 1-4 Rocket 3.5 12:23:13 33° SE 12:23:13 33° SE 12:26:57 10° S
ATLAS 5 CENTAUR R/B 4.3 12:25:18 23° E 12:25:18 23° E 12:29:06 10° ESE
Cosmos 2082 Rocket 4.2 12:19:33 10° SW 12:21:53 19° WSW 12:21:53 19° WSW
IDEFIX/ARIANE 42P 4.4 12:25:54 24° SE 12:25:54 24° SE 12:29:25 10° SSE
Cosmos 2369 Rocket 3.1 12:48:07 45° S 12:48:07 45° S 12:52:19 10° SSE
Cosmos 1943 Rocket 4.3 12:51:19 17° WSW 12:52:07 18° SW 12:55:51 10° S
USA 267 3.4 12:53:27 72° S 12:53:27 72° S 12:59:35 10° SW
Lacrosse 5 rocket 4.1 12:54:47 17° SSW 12:55:16 17° SSW 12:58:22 10° SSE
ATLAS 5 CENTAUR R/B 3.9 12:59:55 36° SE 12:59:55 36° SE 13:05:00 10° SE
CZ-2D R/B 3.2 13:02:57 41° S 13:02:57 41° S 13:06:25 10° S
SL-4 R/B 4.4 13:30:33 24° SE 13:30:33 24° SE 13:32:30 10° SE
ADEOS II 3.0 13:30:00 46° S 13:30:00 46° S 13:33:44 10° SSW
Cosmos 2173 Rocket 4.2 13:35:34 70° SSW 13:35:34 70° SSW 13:41:18 10° S
Lacrosse 4 Rocket 4.3 13:37:04 11° SSW 13:37:04 11° SSW 13:37:26 10° SSW
Cosmos 1459 Rocket 4.2 13:46:33 60° SW 13:46:33 60° SW 13:51:47 10° S
Cosmos 1452 Rocket 4.3 13:45:31 10° S 13:50:21 48° SE 13:50:21 48° SE
Cosmos 1725 Rocket 3.9 13:58:58 80° S 13:58:58 80° S 14:04:53 10° S
Meteor 2-19 Rocket 4.4 13:52:36 10° S 13:58:34 76° ESE 13:58:34 76° ESE
Resurs 1-4 Rocket 4.0 14:04:18 20° SW 14:04:18 20° SW 14:06:28 10° SW
BREEZE-M DEB (TANK) 3.5 14:03:03 68° NE 14:03:03 68° NE 14:16:51 10° ESE
Cosmos 1864 Rocket 4.5 14:04:33 74° SW 14:04:33 74° SW 14:10:29 10° S
IDEFIX/ARIANE 42P 4.0 14:06:42 28° SW 14:06:42 28° SW 14:09:29 10° SSW
IRS-1D 4.0 14:06:02 56° SE 14:06:02 56° SE 14:10:28 10° S
ATLAS 5 CENTAUR R/B 2.8 14:06:39 67° W 14:07:27 72° SW 14:14:37 10° SSE
ALOS 3.2 14:10:38 45° ESE 14:10:38 45° ESE 14:14:58 10° S
ISS -0.7 14:19:34 14° S 14:20:18 15° SSE 14:22:23 10° SE
BREEZE-M (TANK) 4.4 14:20:42 52° NNE 14:21:56 58° NE 14:44:14 10° ESE
Meteor 1-21 4.1 14:23:31 84° ESE 14:23:31 84° ESE 14:29:07 10° S
Cosmos 1656 3.8 14:24:11 66° ENE 14:24:12 66° ENE 14:29:54 10° SSE
SL-16 R/B 4.2 14:20:04 10° SE 14:25:10 26° E 14:28:11 18° NE
Cosmos 1300 Rocket 4.5 14:21:55 10° S 14:25:43 45° ESE 14:25:43 45° ESE
BlueWalker 3 3.6 14:27:33 33° SSE 14:27:33 33° SSE 14:30:12 10° SE
Cosmos 2061 Rocket 4.1 14:26:48 62° W 14:26:59 62° W 14:33:26 10° S
Cosmos 2297 Rocket 3.3 14:23:01 10° S 14:28:28 43° ESE 14:33:25 12° NE
Cosmos 1110 Rocket 4.0 14:24:33 10° SSW 14:29:51 79° ESE 14:29:51 79° ESE
Cosmos 2233 Rocket 3.8 14:32:45 71° WNW 14:33:03 73° W 14:39:17 10° S
ATLAS CENTAUR R/B 3.6 14:36:09 15° E 14:36:09 15° E 14:37:33 10° ESE
Okean 2 4.3 14:36:46 48° SSE 14:36:46 48° SSE 14:39:51 10° SSE
Cosmos 2227 Rocket 3.9 14:31:36 10° S 14:36:41 32° ESE 14:41:43 10° ENE
Cosmos 2242 Rocket 4.2 14:38:39 53° SSW 14:38:39 53° SSW 14:42:22 10° S
COSMOS 2455 4.3 14:37:28 23° NE 14:39:23 27° ENE 14:44:20 10° SE
CZ-2C R/B 2.4 14:43:55 64° ENE 14:44:15 67° ESE 14:48:58 10° S
MOZ.5/SAFIR/RUBIN 5/SL-8 4.0 14:42:38 10° S 14:46:59 63° SW 14:46:59 63° SW
Cosmos 1980 Rocket 4.0 14:49:32 16° NE 14:52:23 23° E 14:56:42 10° SE
Cosmos 1697 Rocket 3.2 14:53:29 41° NNE 14:54:54 51° ENE 15:00:24 10° SSE
Lacrosse 5 4.1 14:55:22 12° NE 14:56:50 14° ENE 14:59:25 10° E
Okean 2 Rocket 4.1 14:56:27 10° S 15:00:50 44° ESE 15:03:03 25° NE
YAOGAN 6 4.3 15:00:16 24° ENE 15:01:22 30° ESE 15:04:30 10° S
Tsikada Rocket 4.4 14:55:37 10° SSW 15:01:33 43° W 15:01:51 42° W
FENGYUN 3A 4.2 15:02:37 41° W 15:02:37 41° W 15:07:12 10° SSW
Meteor 2-10 Rocket 3.8 14:58:55 10° S 15:04:23 71° E 15:07:23 28° NNE
Cosmos 1300 3.0 15:01:19 10° S 15:05:07 61° E 15:05:08 61° E
SL-4 R/B 3.9 15:05:50 23° SW 15:07:34 30° SSW 15:11:45 10° SE
SAR-Lupe-2 3.9 15:08:52 66° SE 15:08:52 66° SE 15:12:13 10° S
Cosmos 2219 4.4 15:05:18 10° SSW 15:10:51 44° ESE 15:16:21 10° NE
PAYLOAD A 4.1 15:14:50 50° NNW 15:16:05 64° W 15:21:33 10° SSW
Cosmos 1953 2.3 15:13:22 10° S 15:17:29 85° E 15:17:56 70° NNE
Cosmos 1674 Rocket 3.9 15:17:09 42° NNE 15:18:27 63° E 15:22:51 10° SSE
Meteor 2-14 Rocket 4.5 15:14:31 10° SSW 15:20:38 61° W 15:22:45 40° NNW
Cosmos 1072 Rocket 4.5 15:19:30 36° NNW 15:22:24 82° W 15:28:56 10° S
IRS-P3 Rocket 4.5 15:20:04 34° N 15:22:28 79° WNW 15:27:47 10° SSW
Meteor 1-16 Rocket 4.2 15:20:25 10° SSW 15:25:44 57° W 15:27:14 43° NNW
Meteor 2-16 Rocket 4.4 15:21:23 10° S 15:27:34 87° E 15:32:40 16° N
CZ-2C R/B 2.8 15:28:18 24° NNE 15:31:18 89° WNW 15:36:09 10° SSW
Cosmos 1269 Rocket 4.0 15:31:25 40° NNW 15:33:25 84° WSW 15:38:48 10° SSE
ARIANE 5 R/B 2.5 15:29:38 17° NNE 15:33:40 88° ESE 15:38:54 10° SSW
Okean 1 Rocket 3.9 15:29:38 10° S 15:33:58 49° E 15:38:14 10° NNE
Cosmos 1302 Rocket 4.0 15:33:24 10° SSW 15:38:34 58° WNW 15:41:23 26° N
Cosmos 614 Rocket 3.9 15:37:24 33° NNW 15:39:46 83° ENE 15:44:58 10° SSE
Cosmos 1484 Rocket 2.5 15:44:14 36° N 15:45:38 75° WNW 15:49:23 10° SSW
ALOS 4.0 15:49:05 17° WSW 15:49:05 17° WSW 15:51:12 10° SW
Nadezhda 4 Rocket 3.9 15:42:47 10° S 15:49:09 81° W 15:55:28 10° N
USA 290 3.8 15:47:32 20° NNE 15:49:12 32° ENE 15:52:11 10° SE
ATLAS 5 CENTAUR R/B 4.4 15:48:00 11° W 15:53:13 22° SW 15:58:22 10° SSE
Cosmos 44 4.2 15:54:27 26° WNW 15:56:53 41° SW 16:01:51 10° SSE
ISS -2.6 15:54:27 10° SW 15:57:44 44° SSE 16:01:00 10° ENE
Cosmos 1378 Rocket 4.0 15:56:47 32° NW 15:58:16 44° WSW 16:02:33 10° S
IRS-1C 4.4 15:56:37 20° NNW 16:00:01 45° W 16:05:12 10° SSW
Meteor 1-28 Rocket 4.0 15:57:32 10° S 16:00:58 34° WSW 16:01:48 30° W
Cosmos 2151 Rocket 4.0 15:56:48 10° SSW 16:01:00 41° W 16:02:51 27° NW
NOSS 3-4 (A) 3.5 15:55:41 10° SW 16:02:42 84° WNW 16:08:46 10° NNE
Spot 4 Rocket 4.2 15:57:37 10° NNE 16:02:46 76° ESE 16:07:59 10° S
NOSS 3-4 (C) 3.5 15:55:48 10° SW 16:02:48 85° WNW 16:08:52 10° NNE
SL-16 R/B 2.9 16:02:58 10° S 16:08:58 50° WSW 16:13:15 19° NW
Cosmos 2297 Rocket 3.1 16:07:33 10° SW 16:12:14 27° WNW 16:15:01 18° NW
Meteor 1-24 Rocket 3.8 16:06:57 10° N 16:12:42 87° E 16:18:44 10° S
Cosmos 1867 3.5 16:07:37 10° SW 16:13:00 64° WNW 16:18:19 10° NNE
ATLAS CENTAUR R/B 2.0 16:11:57 24° W 16:13:24 34° SW 16:16:50 10° SSE
Lacrosse 5 rocket 4.4 16:13:55 10° SSW 16:16:43 16° SSE 16:19:29 10° ESE
Helios 1A 4.3 16:12:50 10° SSE 16:16:52 40° E 16:20:51 10° N
H-2A R/B 2.7 16:14:09 10° N 16:17:51 57° W 16:21:36 10° SSW
Cosmos 2227 Rocket 2.7 16:15:32 10° SW 16:20:45 38° WNW 16:25:56 10° N
CZ-2C R/B 4.2 16:23:16 12° W 16:23:16 12° W 16:24:36 10° WSW
COSMOS 2455 3.3 16:20:38 18° NW 16:24:59 49° SW 16:30:52 10° SSE
Envisat 3.9 16:24:29 14° NNW 16:27:52 28° W 16:32:16 10° SW
CZ-2C R/B 3.5 16:24:16 10° SSE 16:29:22 50° E 16:34:24 10° N
Delta 2 Rocket 4.3 16:26:59 17° WNW 16:30:46 49° N 16:36:01 10° ENE
SL-16 R/B 3.6 16:25:51 10° N 16:31:03 38° ENE 16:36:17 10° SE
Cosmos 1703 4.1 16:27:14 10° N 16:31:04 52° E 16:34:57 10° SSE
Helios 1B rocket 3.4 16:29:08 14° NNW 16:31:48 26° W 16:35:18 10° SW
Cosmos 2251 Rocket 3.6 16:26:55 10° NNW 16:32:12 85° ENE 16:37:31 10° SSE
Cosmos 1140 Rocket 3.7 16:29:12 10° NNW 16:34:23 76° ENE 16:39:40 10° SSE
YAOGAN 6 4.3 16:34:18 14° W 16:34:36 14° W 16:36:37 10° WSW
Cosmos 1025 Rocket 3.0 16:30:54 10° N 16:35:19 78° W 16:39:47 10° S
Cosmos 1980 Rocket 2.6 16:31:19 14° NW 16:35:59 49° WSW 16:41:28 10° SSE
Cosmos 1455 Rocket 3.2 16:32:01 10° S 16:36:33 88° E 16:41:03 10° N
YAOGAN 11 4.4 16:32:32 10° S 16:36:58 55° WSW 16:41:25 10° NNW
Lacrosse 5 1.9 16:34:35 13° NW 16:39:08 89° SW 16:44:17 10° SE
Cosmos 1697 Rocket 4.0 16:35:14 12° WNW 16:39:09 24° SW 16:43:45 10° S
Cosmos 407 Rocket 3.9 16:34:27 10° N 16:39:45 71° ENE 16:45:09 10° SSE
Cosmos 1455 2.4 16:36:19 10° SSW 16:39:53 44° W 16:43:25 10° NNW
Cosmos 2263 Rocket 2.3 16:40:40 10° SSW 16:46:27 88° WNW 16:52:09 10° NNE
BREEZE-M DEB (TANK) 2.8 16:45:46 10° WSW 16:48:07 46° NNW 16:52:51 10° NE
Cosmos 2369 4.5 16:46:16 11° NW 16:51:26 38° WSW 16:56:46 10° S
Atlas Centaur 2 3.5 16:49:34 10° NNW 16:52:40 16° N 16:55:25 10° NE
Cosmos 2026 Rocket 4.2 16:47:11 10° SSW 16:53:15 50° W 16:59:11 10° NNW
Cosmos 2219 4.1 16:49:58 10° SW 16:54:44 27° WNW 16:59:26 10° NNW
Meteor 1-31 Rocket 4.1 16:52:47 10° NNE 16:56:30 46° ESE 17:00:15 10° S
Cosmos 1238 Rocket 2.3 16:53:42 10° S 16:57:19 75° W 17:00:27 10° N
Cosmos 1461 3.3 16:56:47 10° NNW 17:01:00 64° ENE 17:05:03 10° SE
Cosmos 2142 Rocket 4.5 16:56:05 10° NNW 17:02:13 71° W 17:08:26 10° S
NOAA 12 4.2 16:59:05 10° NNE 17:04:27 90° ESE 17:09:52 10° SSW
Cosmos 1190 Rocket 4.3 16:59:40 10° N 17:04:51 73° ENE 17:10:08 10° SSE
CZ-4B R/B 4.4 17:01:14 10° NNE 17:05:24 67° ESE 17:09:27 10° S
